Weather Roundup
Issued by NWS Corpus Christi, TX

Home | Current Version | Previous Version | Text Only | Print | Product List | Glossary On
Versions: 1 2 3 4 5 6 7 8 9 10 11 12 13 14 15 16 17 18 19 20 21 22 23 24 25 26 27 28 29 30 31 32 33 34 35 36 37 38 39 40 41 42 43 44 45 46 47 48 49 50
000
ASUS44 KCRP 241110
HRRCRP

SOUTH TEXAS REGIONAL WEATHER ROUNDUP
NATIONAL WEATHER SERVICE CORPUS CHRISTI TX
600 AM CDT SUN MAY 24 2015


TXZ229>244-241200-
...CORPUS CHRISTI AREA OBSERVATIONS...

CITY           SKY/WX    TMP DP  RH WIND       PRES   REMARKS
CORPUS CHRISTI CLOUDY    71  68  90 SE5       29.88R
NAS CORPUS CHR NOT AVBL
ROCKPORT       CLOUDY    74  69  85 S13       29.86S
ALICE          CLOUDY    70  67  90 E3        29.89R
FALFURRIAS     CLOUDY    70  67  89 NE3       29.87R
$$

...VICTORIA AREA OBSERVATIONS...

CITY           SKY/WX    TMP DP  RH WIND       PRES   REMARKS
VICTORIA       CLOUDY    69  68  96 S5        29.90R
BEEVILLE       FAIR      68  68 100 CALM      29.89R
PLEASANTON     CLOUDY    69  66  91 N3        29.87R
SAN ANTONIO    CLOUDY    65  63  93 E5        29.88R
$$

...LAREDO AREA OBSERVATIONS...

CITY           SKY/WX    TMP DP  RH WIND       PRES   REMARKS
LAREDO         CLOUDY    68  67  96 SE8       29.84F
COTULLA        CLOUDY    70  67  90 CALM      29.87R
DEL RIO        PTCLDY    67  66  97 E8        29.81F
MCALLEN        CLOUDY    72  68  87 SE17      29.85S
HEBBRONVILLE     N/A     69  65  87 CALM      29.89R
$$

...OTHER TEXAS OBSERVATIONS...

CITY           SKY/WX    TMP DP  RH WIND       PRES   REMARKS
BROWNSVILLE    RAIN      70  68  93 SE10      29.96F FOG
HOUSTON        CLOUDY    78  72  81 SE15      29.92R
COL. STATION   TSTM      69  67  93 E12       29.87F FOG
AUSTIN         LGT RAIN  63  63 100 SE7       29.86
WACO           HVY RAIN  66  65  96 W3        29.90S FOG
FORT WORTH     LGT RAIN  65  65 100 S9        29.88F
WICHITA FALLS  CLOUDY    63  62  97 NE9       29.85S
LUBBOCK        CLOUDY    60  58  92 S9        29.86F
EL PASO        CLEAR     65  24  21 W13       29.96S
$$

...MARINE OBSERVATIONS...

STATION/POSITION TIME  SKY/WX   TEMP    WIND        PRES    VSBY  WAVE   SWELL
                                AIR SEA DIR/SP/G                  HT/PER HT/PER
                 (UTC)          (F)     (DEG/KT/KT) (MB)    (MI)  (FT/S) (FT/S)
PORT ARANSAS     1100            76 80  140/ 13/ 15 1012.3R
BUOY 90 E PORT A 1050            79 79  180/ 19/ 25 1013.3F         7/ 7
BUOY 45 SE BAFFI 1050            74 79  160/ 17/ 19 1012.3F         6/ 7
BUOY 200 E PT IS 1050            81 81  150/ 19/ 23 1014.3R         6/ 6
BUOY 15 E GALVES 1050            80 80  150/ 19/ 23 1013.2F         5/ 6
$$


USA.gov is the U.S. government's official web portal to all federal, state and local government web resources and services.